EW6519 Weather Reports


Display with metric or nautical units.
time (UTC)temp
F
wind
direction
speed
MPH
gust
MPH
rain 1hr
in
rain 24hr
in
rain mn
in
humidity
%
barometer
mb
20260508064536 49 248 0.0 0.0 0.00 0.00 0.00 60 1013.9
20260508063036 50 248 0.0 5.0 0.00 0.00 0.00 59 1014.1
20260508061538 50 240 1.0 4.0 0.00 0.00 0.00 58 1014.2
20260508060032 50 251 1.0 5.0 0.00 0.00 0.00 57 1014.4
20260508054535 50 236 2.0 7.0 0.00 0.00 0.00 56 1014.3
20260508053033 50 259 0.0 6.0 0.00 0.00 0.00 56 1014.3
20260508051524 50 238 0.0 5.0 0.00 0.00 0.00 57 1014.2
20260508050023 49 200 0.0 0.0 0.00 0.00 0.00 59 1014.1
20260508044521 49 239 0.0 0.0 0.00 0.00 0.00 60 1014.1
20260508043020 49 224 0.0 3.0 0.00 0.00 0.00 60 1014.2
20260508041521 49 199 0.0 2.0 0.00 0.00 0.00 62 1014.1
20260508040017 49 150 0.0 0.0 0.00 0.00 0.00 62 1014.1
20260508034517 49 150 0.0 0.0 0.00 0.00 0.00 61 1014.1
20260508033015 49 174 0.0 0.0 0.00 0.00 0.00 61 1014.2
20260508031514 49 245 0.0 0.0 0.00 0.00 0.00 61 1014.1
20260508030014 49 256 0.0 0.0 0.00 0.00 0.00 61 1014.2
20260508024532 50 256 0.0 0.0 0.00 0.00 0.00 61 1014.1
20260508023014 49 256 0.0 0.0 0.00 0.00 0.00 61 1014.1
20260508021511 49 256 0.0 0.0 0.00 0.00 0.00 60 1014.0
20260508020011 50 256 0.0 0.0 0.00 0.00 0.00 59 1014.0
20260508014511 50 256 0.0 0.0 0.00 0.00 0.00 57 1014.0
20260508013013 51 256 0.0 0.0 0.00 0.00 0.00 57 1013.9
20260508011509 52 256 0.0 0.0 0.00 0.00 0.00 55 1013.7
20260508010011 53 256 0.0 0.0 0.00 0.00 0.00 51 1013.8
20260508004518 54 256 0.0 0.0 0.00 0.00 0.00 48 1013.7
20260508003008 55 256 0.0 0.0 0.00 0.00 0.00 46 1013.6
20260508001524 56 256 0.0 0.0 0.00 0.00 0.00 44 1013.5
20260508000007 57 264 0.0 0.0 0.00 0.00 0.00 43 1013.4
20260507234509 58 207 0.0 0.0 0.00 0.00 0.00 42 1013.3
20260507233106 58 205 0.0 0.0 0.00 0.00 0.00 43 1013.2
20260507231504 58 37 0.0 2.0 0.00 0.00 0.00 43 1013.1
20260507230004 58 284 0.0 0.0 0.00 0.00 0.00 40 1013.3
20260507224504 59 276 0.0 0.0 0.00 0.00 0.00 41 1013.3
20260507223003 59 238 0.0 0.0 0.00 0.00 0.00 41 1013.2
20260507221501 59 233 0.0 0.0 0.00 0.00 0.00 41 1013.1
20260507220003 60 61 0.0 4.0 0.00 0.00 0.00 39 1013.3
20260507214600 60 278 0.0 8.0 0.00 0.00 0.00 40 1013.3
20260507213058 59 281 0.0 8.0 0.00 0.00 0.00 38 1013.4
20260507211604 60 311 2.0 7.0 0.00 0.00 0.00 37 1013.4
20260507210109 62 245 2.0 8.0 0.00 0.00 0.00 37 1013.3
20260507204558 60 316 3.0 11.0 0.00 0.00 0.00 37 1013.2
20260507203121 62 288 1.0 8.0 0.00 0.00 0.00 38 1013.3
20260507201553 61 276 0.0 5.0 0.00 0.00 0.00 40 1013.3
20260507200053 60 320 0.0 7.0 0.00 0.00 0.00 39 1013.4
20260507194601 61 115 0.0 5.0 0.00 0.00 0.00 38 1013.4
20260507193048 60 282 1.0 5.0 0.00 0.00 0.00 40 1013.6
20260507191549 59 286 1.0 10.0 0.00 0.00 0.00 38 1013.6
20260507190055 60 273 1.0 7.0 0.00 0.00 0.00 39 1013.6
20260507184549 61 302 0.0 5.0 0.00 0.00 0.00 40 1013.6
20260507183044 59 7 1.0 7.0 0.00 0.00 0.00 41 1013.7
20260507181544 60 304 2.0 5.0 0.00 0.00 0.00 39 1013.8
20260507180044 60 297 1.0 4.0 0.00 0.00 0.00 39 1014.0
20260507174546 60 264 1.0 8.0 0.00 0.00 0.00 38 1014.2
20260507173110 61 259 0.0 4.0 0.00 0.00 0.00 40 1014.4
20260507171543 58 298 1.0 6.0 0.00 0.00 0.00 43 1014.6
20260507170040 59 23 1.0 5.0 0.00 0.00 0.00 40 1014.7
20260507164538 59 261 1.0 4.0 0.00 0.00 0.00 42 1014.8
20260507163039 58 278 0.0 4.0 0.00 0.00 0.00 43 1015.0
20260507161541 57 236 0.0 5.0 0.00 0.00 0.00 42 1015.0
20260507160032 57 357 0.0 5.0 0.00 0.00 0.00 43 1015.0
20260507154820 57 309 0.0 6.0 0.00 0.00 0.00 44 1014.8
20260507154501 56 307 0.0 6.0 0.00 0.00 0.00 42 1015.0
20260507153101 56 40 0.0 9.0 0.00 0.00 0.00 43 1014.9
20260507153001 56 266 2.0 9.0 0.00 0.00 0.00 43 1014.9
20260507151600 55 18 1.0 4.0 0.00 0.00 0.00 45 1014.9
20260507150055 54 43 0.0 5.0 0.00 0.00 0.00 50 1014.8
20260507144608 54 332 1.0 4.0 0.00 0.00 0.00 49 1014.9
20260507143100 54 6 1.0 6.0 0.00 0.00 0.00 48 1015.0
20260507141558 52 20 1.0 9.0 0.00 0.00 0.00 48 1015.0
20260507140050 53 286 0.0 4.0 0.00 0.00 0.00 50 1015.1
20260507134552 51 273 0.0 7.0 0.00 0.00 0.00 50 1015.0
20260507133118 51 307 2.0 6.0 0.00 0.00 0.00 52 1015.0
20260507131545 50 303 1.0 7.0 0.00 0.00 0.00 54 1015.1
20260507130050 50 326 0.0 0.0 0.00 0.00 0.00 61 1015.0
20260507124536 48 278 0.0 5.0 0.00 0.00 0.00 65 1015.0
20260507123040 46 289 0.0 0.0 0.00 0.00 0.00 68 1015.1
20260507121534 46 340 0.0 0.0 0.00 0.00 0.00 69 1015.2
20260507120035 45 25 0.0 0.0 0.00 0.00 0.00 72 1015.1
20260507114532 44 286 0.0 0.0 0.00 0.00 0.00 72 1015.1
20260507113034 44 20 0.0 0.0 0.00 0.00 0.00 74 1015.1
20260507111527 44 314 0.0 0.0 0.00 0.00 0.00 74 1014.9
20260507110033 43 293 0.0 2.0 0.00 0.00 0.00 75 1014.7
20260507104523 43 261 0.0 0.0 0.00 0.00 0.00 76 1014.4
20260507103028 43 292 0.0 0.0 0.00 0.00 0.00 79 1014.5
20260507101531 44 284 0.0 0.0 0.00 0.00 0.00 79 1014.5
20260507100022 44 291 0.0 0.0 0.00 0.00 0.00 80 1014.4
20260507094518 44 298 0.0 0.0 0.00 0.00 0.00 81 1014.5
20260507093016 44 295 0.0 0.0 0.00 0.00 0.00 81 1014.4
20260507091518 44 294 0.0 0.0 0.00 0.00 0.00 81 1014.2
20260507090013 45 294 0.0 0.0 0.00 0.00 0.00 82 1014.2
20260507084514 45 308 0.0 0.0 0.00 0.02 0.00 83 1014.1
20260507083012 45 326 0.0 0.0 0.00 0.02 0.00 85 1014.0
20260507081511 45 326 0.0 0.0 0.00 0.02 0.00 86 1013.9
20260507080012 45 326 0.0 0.0 0.00 0.02 0.00 86 1014.0
20260507074509 45 326 0.0 0.0 0.00 0.07 0.00 87 1013.8
20260507073007 45 326 0.0 0.0 0.00 0.07 0.00 86 1013.9
20260507071508 45 326 0.0 0.0 0.00 0.07 0.00 85 1013.9
20260507070010 46 326 0.0 0.0 0.00 0.07 0.00 86 1013.7